Hourly Data Report for September 06, 2013

All times are specified in Local Standard Time (LST). Add 1 hour to adjust for Daylight Saving Time where and when it is observed.

PETAWAWA AWOS 2
ONTARIO

45°57'00.000" N
77°19'00.000" W
130.10 m
6106396
71625
YWA

Download Data

Hourly Data (September 2013)
Hourly Data Report for September 6, 2013
Temp Definition
°C
Dew Point Temp Definition
°C
Rel Hum Definition
%
Wind Dir Definition
10's deg

Wind Spd Definition
km/h
Visibility Definition
km
Stn Press Definition
kPa
Hmdx Definition


Wind Chill Definition


Weather Definition


TIME
00:00 3.7 3.3 97 24 4 15.0 100.69      
01:00 3.4 2.8 96 24 4 15.0 100.70      
02:00 3.1 2.7 97   0 15.0 100.72      
03:00 2.3 1.9 97   0 15.0 100.69      
04:00 2.3 2.0 98   0 15.0 100.72      
05:00 1.2 1.1 99 24 4 15.0 100.76      
06:00 1.7 1.5 99   0 15.0 100.77      
07:00 5.2 4.9 98   0 15.0 100.77      
08:00 9.3 8.8 97 12 4 15.0 100.72      
09:00 12.1 10.1 88 15 4 15.0 100.68      
10:00 14.7 11.1 79 26 7 15.0 100.59      
11:00 19.0 9.8 55 23 13 15.0 100.51      
12:00 19.8 10.1 54 23 13 15.0 100.42      
13:00 21.2 9.8 48 21 13 15.0 100.32      
14:00 21.8 9.2 45 22 17 15.0 100.26      
15:00 20.8 9.0 47 22 15 15.0 100.19      
16:00 21.2 9.7 48 21 9 15.0 100.14      
17:00 20.8 10.1 50 25 6 15.0 100.14      
18:00 20.0 7.8 45 25 11 15.0 100.17      
19:00 17.7 8.7 56 23 7 15.0 100.12      
20:00 16.9 8.3 57 23 4 15.0 100.08      
21:00 16.8 7.9 56 24 4 15.0 100.05      
22:00 16.1 9.3 64 23 4 15.0 100.02      
23:00 15.2 11.4 78   0 15.0 99.98     Rain

Notes on Data Quality.

Legend

  • E = Estimated
  • M = Missing
  • NA = Not Available
Date modified: